Regional Weather Roundup
Issued by NWS

Home | Current Version | Previous Version | Graphics & Text | Print | Product List | Glossary On
Versions: 1 2 3 4 5 6 7 8 9 10 11 12 13 14 15 16 17 18 19 20 21 22 23 24 25 26 27 28 29 30 31 32 33 34 35 36 37 38 39 40 41 42 43 44 45 46 47 48 49 50
000
ASUS43 KLSX 240459
RWRMO

WEATHER SUMMARY FOR MISSOURI
NATIONAL WEATHER SERVICE SPRINGFIELD MO
1200 AM CDT FRI OCT 24 2014

NOTE: "FAIR" INDICATES FEW OR NO CLOUDS BELOW 12,000 FEET WITH NO
       SIGNIFICANT WEATHER AND/OR OBSTRUCTIONS TO VISIBILITY.
       CURRENT SKY AND/OR WEATHER CONDITIONS ARE NOT AVAILABLE FOR
       CHILLICOTHE AND FARMINGTON.

MOZ001>031-035>038-043-044-053-054-240600-
...NORTHERN AND WESTERN MISSOURI...

CITY           SKY/WX    TMP DP  RH WIND       PRES   REMARKS
KANSAS CTY INT PTCLDY    56  56 100 SW8       30.08F FOG
KANSAS C DTWN  CLEAR     59  56  89 SW5       30.08F FOG
LEE`S SUMMIT   CLEAR     56  55  97 SW7       30.09F FOG
ST JOSEPH      FAIR      57  56  96 S5        30.06F FOG
KIRKSVILLE     FOG       57  57 100 W6        30.08F VSB 1/4

$$
MOZ066>068-077>081-088>096-101>105-240600-
...SOUTHWEST MISSOURI...

CITY           SKY/WX    TMP DP  RH WIND       PRES   REMARKS
SPRINGFIELD    MOCLDY    51  50  96 SW6       30.12F FOG
JOPLIN         PTCLDY    53  53 100 SE5       30.13S FOG

$$
MOZ032>034-039>042-045>050-055>058-069>072-240600-
...CENTRAL MISSOURI...

CITY           SKY/WX    TMP DP  RH WIND       PRES   REMARKS
COLUMBIA       CLEAR     54  53  97 SW5       30.10R
JEFFERSON CITY CLEAR     53  50  89 CALM      30.10R
ROLLA          CLOUDY    54  48  80 SW6       30.11R
SEDALIA        CLOUDY    62  58  86 SW7       30.11F
OSAGE BEACH    CLOUDY    54  50  87 CALM      30.12R

$$
MOZ051-052-059>065-240600-
...EAST CENTRAL MISSOURI...

CITY           SKY/WX    TMP DP  RH WIND       PRES   REMARKS
ST LOUIS INTL  MOCLDY    59  47  64 W3        30.10S
SPIRIT OF STL  MOCLDY    55  48  77 CALM      30.09S
ST CHARLES     PTCLDY    52  48  86 CALM      30.09S

$$
MOZ072>076-082>087-097>100-106>115-240600-
...SOUTH CENTRAL AND SOUTHEAST MISSOURI...

CITY           SKY/WX    TMP DP  RH WIND       PRES   REMARKS
CAPE GIRARDEAU CLEAR     46  44  93 CALM      30.12S
FARMINGTON     CLEAR     48  45  87 CALM      30.13S
POPLAR BLUFF   CLEAR     47  43  86 CALM      30.12S FOG
WEST PLAINS    CLOUDY    52  46  80 CALM      30.14S

$$



USA.gov is the U.S. government's official web portal to all federal, state and local government web resources and services.